| time (UTC) | temp C | wind direction | speed KPH | gust KPH | rain 1hr cm | rain 24hr cm | rain mn cm | humidity % | barometer mb |
| 20260507120341 | 9 | 48 | 0.0 | 1.6 | 0.00 | 0.00 | 0.00 | 82 | 1019.4 |
| 20260507114824 | 9 | 48 | 0.0 | 0.0 | 0.00 | 0.00 | 0.00 | 81 | 1019.3 |
| 20260507113316 | 9 | 48 | 0.0 | 3.2 | 0.00 | 0.00 | 0.00 | 81 | 1019.4 |
| 20260507111835 | 10 | 48 | 0.0 | 0.0 | 0.00 | 0.00 | 0.00 | 81 | 1019.4 |
| 20260507110325 | 10 | 48 | 0.0 | 1.6 | 0.00 | 0.00 | 0.00 | 81 | 1019.5 |
| 20260507104851 | 10 | 48 | 0.0 | 0.0 | 0.00 | 0.00 | 0.00 | 80 | 1019.5 |
| 20260507103322 | 10 | 48 | 0.0 | 0.0 | 0.00 | 0.00 | 0.00 | 81 | 1019.4 |
| 20260507101815 | 10 | 48 | 0.0 | 3.2 | 0.00 | 0.00 | 0.00 | 80 | 1019.1 |
| 20260507100324 | 10 | 48 | 0.0 | 6.4 | 0.00 | 0.00 | 0.00 | 80 | 1019.0 |
| 20260507094818 | 10 | 47 | 4.8 | 9.7 | 0.00 | 0.00 | 0.00 | 80 | 1018.7 |
| 20260507093328 | 10 | 61 | 4.8 | 11.3 | 0.00 | 0.00 | 0.00 | 80 | 1018.4 |
| 20260507091840 | 10 | 42 | 4.8 | 9.7 | 0.00 | 0.00 | 0.00 | 80 | 1018.3 |
| 20260507090335 | 10 | 59 | 4.8 | 8.0 | 0.00 | 0.00 | 0.00 | 79 | 1018.3 |
| 20260507084826 | 10 | 41 | 6.4 | 9.7 | 0.00 | 0.00 | 0.00 | 79 | 1018.0 |
| 20260507083321 | 11 | 56 | 4.8 | 9.7 | 0.00 | 0.00 | 0.00 | 78 | 1018.0 |
| 20260507081851 | 11 | 70 | 9.7 | 14.5 | 0.00 | 0.00 | 0.00 | 78 | 1017.6 |
| 20260507080325 | 11 | 44 | 4.8 | 9.7 | 0.00 | 0.00 | 0.00 | 78 | 1017.7 |
| 20260507074819 | 11 | 52 | 4.8 | 11.3 | 0.00 | 0.00 | 0.00 | 78 | 1017.7 |
| 20260507073349 | 11 | 63 | 4.8 | 9.7 | 0.00 | 0.00 | 0.00 | 78 | 1017.7 |
| 20260507071820 | 11 | 77 | 4.8 | 8.0 | 0.00 | 0.00 | 0.00 | 77 | 1017.5 |
| 20260507070330 | 11 | 84 | 1.6 | 4.8 | 0.00 | 0.00 | 0.00 | 76 | 1017.4 |
| 20260507064824 | 11 | 84 | 0.0 | 0.0 | 0.00 | 0.00 | 0.00 | 76 | 1017.5 |
| 20260507063338 | 11 | 84 | 1.6 | 4.8 | 0.00 | 0.00 | 0.00 | 76 | 1017.4 |
| 20260507061831 | 11 | 84 | 1.6 | 4.8 | 0.00 | 0.00 | 0.00 | 75 | 1017.1 |
| 20260507060324 | 11 | 85 | 1.6 | 3.2 | 0.00 | 0.00 | 0.00 | 75 | 1016.8 |
| 20260507054831 | 11 | 85 | 1.6 | 4.8 | 0.00 | 0.00 | 0.00 | 74 | 1016.5 |
| 20260507053343 | 12 | 85 | 0.0 | 1.6 | 0.00 | 0.00 | 0.00 | 74 | 1016.4 |
| 20260507051816 | 12 | 85 | 1.6 | 3.2 | 0.00 | 0.00 | 0.00 | 73 | 1016.2 |
| 20260507050331 | 12 | 85 | 0.0 | 0.0 | 0.00 | 0.00 | 0.00 | 73 | 1015.9 |
| 20260507044821 | 12 | 85 | 0.0 | 4.8 | 0.00 | 0.00 | 0.00 | 72 | 1015.6 |
| 20260507043317 | 12 | 80 | 4.8 | 4.8 | 0.00 | 0.00 | 0.00 | 72 | 1015.4 |
| 20260507041832 | 12 | 78 | 1.6 | 4.8 | 0.00 | 0.00 | 0.00 | 71 | 1015.5 |
| 20260507040327 | 12 | 79 | 3.2 | 8.0 | 0.00 | 0.00 | 0.00 | 70 | 1015.4 |
| 20260507034815 | 13 | 93 | 6.4 | 12.9 | 0.00 | 0.00 | 0.00 | 69 | 1015.4 |
| 20260507033328 | 13 | 96 | 4.8 | 12.9 | 0.00 | 0.00 | 0.00 | 69 | 1015.4 |
| 20260507031815 | 13 | 111 | 6.4 | 12.9 | 0.00 | 0.00 | 0.00 | 68 | 1015.2 |
| 20260507030330 | 13 | 89 | 4.8 | 16.1 | 0.00 | 0.00 | 0.00 | 67 | 1015.0 |
| 20260507024831 | 14 | 97 | 4.8 | 9.7 | 0.00 | 0.00 | 0.00 | 66 | 1014.8 |
| 20260507023326 | 14 | 66 | 6.4 | 9.7 | 0.00 | 0.00 | 0.00 | 64 | 1014.8 |
| 20260507021831 | 15 | 88 | 4.8 | 9.7 | 0.00 | 0.00 | 0.00 | 62 | 1014.5 |
| 20260507020323 | 15 | 94 | 4.8 | 11.3 | 0.00 | 0.00 | 0.00 | 60 | 1014.5 |
| 20260507014830 | 15 | 74 | 4.8 | 9.7 | 0.00 | 0.00 | 0.00 | 58 | 1014.2 |
| 20260507013324 | 16 | 84 | 8.0 | 16.1 | 0.00 | 0.00 | 0.00 | 57 | 1014.1 |
| 20260507011820 | 16 | 95 | 9.7 | 17.7 | 0.00 | 0.00 | 0.00 | 56 | 1013.8 |
| 20260507010320 | 17 | 86 | 11.3 | 19.3 | 0.00 | 0.00 | 0.00 | 55 | 1013.6 |
| 20260507004837 | 17 | 85 | 8.0 | 19.3 | 0.00 | 0.00 | 0.00 | 54 | 1013.7 |
| 20260507003331 | 17 | 89 | 11.3 | 19.3 | 0.00 | 0.00 | 0.00 | 52 | 1013.6 |
| 20260507001827 | 18 | 79 | 12.9 | 20.9 | 0.00 | 0.00 | 0.00 | 51 | 1013.4 |
| 20260507000328 | 18 | 74 | 14.5 | 22.5 | 0.00 | 0.00 | 0.00 | 50 | 1013.3 |
| 20260506234818 | 18 | 30 | 8.0 | 20.9 | 0.00 | 0.00 | 0.00 | 52 | 1013.2 |
| 20260506233333 | 18 | 40 | 12.9 | 20.9 | 0.00 | 0.00 | 0.00 | 49 | 1013.2 |
| 20260506231825 | 19 | 46 | 8.0 | 17.7 | 0.00 | 0.00 | 0.00 | 49 | 1013.2 |
| 20260506230320 | 19 | 38 | 11.3 | 17.7 | 0.00 | 0.00 | 0.00 | 47 | 1012.9 |
| 20260506224829 | 19 | 12 | 9.7 | 17.7 | 0.00 | 0.00 | 0.00 | 46 | 1012.7 |
| 20260506223322 | 20 | 322 | 9.7 | 16.1 | 0.00 | 0.00 | 0.00 | 45 | 1012.5 |
| 20260506221836 | 20 | 36 | 6.4 | 14.5 | 0.00 | 0.00 | 0.00 | 46 | 1012.4 |
| 20260506220330 | 20 | 9 | 4.8 | 14.5 | 0.00 | 0.00 | 0.00 | 46 | 1012.4 |
| 20260506214826 | 20 | 40 | 8.0 | 14.5 | 0.00 | 0.00 | 0.00 | 44 | 1012.4 |
| 20260506213320 | 20 | 324 | 6.4 | 14.5 | 0.00 | 0.00 | 0.00 | 44 | 1012.4 |
| 20260506211831 | 20 | 43 | 8.0 | 16.1 | 0.00 | 0.00 | 0.00 | 44 | 1012.4 |
| 20260506210328 | 20 | 42 | 4.8 | 16.1 | 0.00 | 0.00 | 0.00 | 44 | 1012.6 |
| 20260506204827 | 21 | 75 | 9.7 | 16.1 | 0.00 | 0.00 | 0.00 | 43 | 1012.8 |
| 20260506203320 | 20 | 42 | 8.0 | 14.5 | 0.00 | 0.00 | 0.00 | 46 | 1012.8 |
| 20260506201832 | 20 | 83 | 9.7 | 16.1 | 0.00 | 0.00 | 0.00 | 47 | 1013.0 |
| 20260506200325 | 18 | 65 | 6.4 | 16.1 | 0.00 | 0.00 | 0.00 | 49 | 1013.1 |
| 20260506194823 | 18 | 46 | 4.8 | 14.5 | 0.00 | 0.00 | 0.00 | 48 | 1013.3 |
| 20260506193321 | 19 | 24 | 6.4 | 16.1 | 0.00 | 0.00 | 0.00 | 50 | 1013.4 |
| 20260506191850 | 18 | 15 | 9.7 | 19.3 | 0.00 | 0.00 | 0.00 | 52 | 1013.6 |
| 20260506190326 | 17 | 66 | 8.0 | 19.3 | 0.00 | 0.00 | 0.00 | 55 | 1013.7 |
| 20260506184814 | 17 | 61 | 9.7 | 17.7 | 0.00 | 0.00 | 0.00 | 56 | 1014.0 |
| 20260506183330 | 16 | 49 | 6.4 | 14.5 | 0.00 | 0.00 | 0.00 | 57 | 1014.2 |
| 20260506181822 | 16 | 44 | 8.0 | 17.7 | 0.00 | 0.00 | 0.00 | 57 | 1014.5 |
| 20260506180315 | 16 | 17 | 6.4 | 14.5 | 0.00 | 0.00 | 0.00 | 58 | 1014.6 |
| 20260506174842 | 15 | 300 | 8.0 | 17.7 | 0.00 | 0.00 | 0.00 | 60 | 1014.6 |
| 20260506173334 | 15 | 57 | 9.7 | 17.7 | 0.00 | 0.00 | 0.00 | 63 | 1014.7 |
| 20260506171826 | 14 | 9 | 8.0 | 19.3 | 0.00 | 0.00 | 0.00 | 66 | 1014.8 |
| 20260506170319 | 13 | 71 | 14.5 | 20.9 | 0.00 | 0.00 | 0.00 | 69 | 1014.7 |
| 20260506164834 | 12 | 355 | 6.4 | 20.9 | 0.00 | 0.00 | 0.00 | 72 | 1014.8 |
| 20260506163346 | 11 | 42 | 14.5 | 22.5 | 0.00 | 0.00 | 0.00 | 73 | 1014.9 |
| 20260506161834 | 11 | 41 | 11.3 | 20.9 | 0.00 | 0.00 | 0.00 | 75 | 1014.6 |
| 20260506160327 | 11 | 344 | 9.7 | 19.3 | 0.00 | 0.00 | 0.00 | 76 | 1014.3 |
| 20260506154817 | 11 | 5 | 14.5 | 20.9 | 0.00 | 0.00 | 0.00 | 77 | 1014.5 |
| 20260506153330 | 10 | 360 | 12.9 | 22.5 | 0.00 | 0.00 | 0.00 | 77 | 1014.3 |
| 20260506151848 | 10 | 346 | 11.3 | 24.1 | 0.00 | 0.00 | 0.00 | 78 | 1014.0 |
| 20260506150319 | 10 | 11 | 12.9 | 22.5 | 0.00 | 0.00 | 0.00 | 78 | 1014.0 |
| 20260506144848 | 10 | 36 | 9.7 | 19.3 | 0.00 | 0.00 | 0.00 | 78 | 1013.8 |
| 20260506143341 | 10 | 22 | 8.0 | 24.1 | 0.00 | 0.00 | 0.00 | 79 | 1014.1 |
| 20260506141832 | 10 | 39 | 9.7 | 20.9 | 0.00 | 0.00 | 0.00 | 78 | 1014.3 |
| 20260506140325 | 10 | 57 | 14.5 | 22.5 | 0.00 | 0.00 | 0.00 | 78 | 1014.0 |
| 20260506134836 | 10 | 51 | 9.7 | 20.9 | 0.00 | 0.00 | 0.00 | 78 | 1014.3 |
| 20260506133350 | 10 | 61 | 12.9 | 22.5 | 0.00 | 0.00 | 0.00 | 78 | 1014.2 |
| 20260506131839 | 10 | 13 | 12.9 | 24.1 | 0.00 | 0.00 | 0.00 | 78 | 1013.8 |
| 20260506130322 | 10 | 57 | 14.5 | 20.9 | 0.00 | 0.00 | 0.00 | 78 | 1013.6 |
| 20260506124816 | 10 | 51 | 11.3 | 19.3 | 0.00 | 0.00 | 0.00 | 78 | 1013.3 |
| 20260506123329 | 10 | 45 | 11.3 | 19.3 | 0.00 | 0.00 | 0.00 | 78 | 1013.3 |
| 20260506121821 | 10 | 44 | 12.9 | 17.7 | 0.00 | 0.00 | 0.00 | 78 | 1013.0 |